Regional Weather Roundup
Issued by NWS

Home | Current Version | Previous Version | Graphics & Text | Print | Product List | Glossary On
Versions: 1 2 3 4 5 6 7 8 9 10 11 12 13 14 15 16 17 18 19 20 21 22 23 24 25 26 27 28 29 30 31 32 33 34 35 36 37 38 39 40 41 42 43 44 45 46 47 48 49 50
000
ASUS43 KOAX 182202
RWRNE

WEATHER ROUNDUP FOR NEBRASKA
NATIONAL WEATHER SERVICE OMAHA NE
400 PM CST SAT NOV 18 2017

NOTES: SATELLITE DATA IS BEING USED TO AUGMENT CLOUD COVER ABOVE
       12000 FEET.
       "FAIR" INDICATES FEW OR NO CLOUDS BELOW 12,000 FEET WITH NO
       SIGNIFICANT WEATHER AND/OR OBSTRUCTIONS TO VISIBILITY.


NEZ001>004-019>022-054>056-182300-
NEBRASKA PANHANDLE

CITY           SKY/WX    TMP DP  RH WIND       PRES   REMARKS
SCOTTSBLUFF    SUNNY     44  12  27 W13       30.17F
ALLIANCE       SUNNY     44  12  27 NW21      30.14S
CHADRON        SUNNY     45  16  31 NW16      30.14F
GORDON         FAIR      44  17  34 W18G25    30.11F
KIMBALL        SUNNY     41  14  33 NW23G30   30.17F
SIDNEY         SUNNY     42  15  33 NW21G26   30.18F
$$

NEZ057>060-069>072-079>082-182300-
SOUTHWEST NEBRASKA

CITY           SKY/WX    TMP DP  RH WIND       PRES   REMARKS
NORTH PLATTE   SUNNY     48  18  30 NW18G24   30.16R
IMPERIAL       SUNNY     47  16  29 NW16      30.18S
LEXINGTON      MOSUNNY   48  22  35 N17G24    30.15R
MCCOOK         SUNNY     49  19  30 NW24      30.17R
OGALLALA       SUNNY     48  15  27 NW18G28   30.17R
$$

NEZ005>010-023>029-035>040-094-182300-
NORTH CENTRAL NEBRASKA

CITY           SKY/WX    TMP DP  RH WIND       PRES   REMARKS
VALENTINE      SUNNY     46  22  38 NW15      30.11R
AINSWORTH      SUNNY     43  24  47 NW16G26   30.10S
BROKEN BOW     SUNNY     46  21  37 N22G33    30.12R
O`NEILL        SUNNY     40  26  57 NW15G24   30.11R WCI  32
ORD            MOSUNNY   45  26  47 NW17G26   30.11R
THEDFORD       MOSUNNY   46  20  36 NW21      30.14R
$$

NEZ041-046>049-061>064-073>077-083>087-182300-
SOUTH CENTRAL NEBRASKA

CITY           SKY/WX    TMP DP  RH WIND       PRES   REMARKS
GRAND ISLAND   SUNNY     47  26  44 NW25G33   30.12R
AURORA         SUNNY     46  26  45 NW25G31   30.11R
HASTINGS       SUNNY     46  23  40 NW21G33   30.13R
HEBRON         MOSUNNY   51  26  38 NW17G31   30.11R
HOLDREGE       PTSUNNY   48  25  41 NW12G20   30.14R
KEARNEY        MOSUNNY   47  23  38 N20G26    30.14R
$$

NEZ011>018-030>034-042>045-182300-
NORTHEAST NEBRASKA

CITY           SKY/WX    TMP DP  RH WIND       PRES   REMARKS
NORFOLK        CLEAR     41  24  51 NW20G25   30.06R
ALBION         SUNNY     44  28  52 NW20G25   30.10R
BLAIR          CLEAR     43  29  58 NW16G29   30.05R
COLUMBUS       CLEAR     43  26  51 NW18      30.10R
FREMONT        CLEAR     43  27  51 NW22G30   30.08R
TEKAMAH        CLEAR     41  25  53 NW18G29   30.07R
WAYNE          CLEAR     38  20  48 NW13      30.08R WCI  31
$$

NEZ050>053-065>068-078-088>093-182300-
SOUTHEAST NEBRASKA

CITY           SKY/WX    TMP DP  RH WIND       PRES   REMARKS
LINCOLN        CLEAR     49  25  39 NW21G30   30.09R
OMAHA EPPLEY   CLEAR     43  26  51 NW26G32   30.05R
BEATRICE       SUNNY     49  28  42 NW24G32   30.09R
FALLS CITY     PTCLDY    50  30  46 NW22G37   30.03R
NEBRASKA CITY  CLEAR     47  30  50 NW24      30.05R
PLATTSMOUTH    CLEAR     46  29  52 NW20G29   30.04R
$$

NEZ044-045-051>053-067-182300-
OMAHA AREA

CITY           SKY/WX    TMP DP  RH WIND       PRES   REMARKS
OMAHA EPPLEY   CLEAR     43  26  51 NW26G32   30.05R
BLAIR          CLEAR     43  29  58 NW16G29   30.05R
FREMONT        CLEAR     43  27  51 NW22G30   30.08R
MILLARD        CLEAR     46  28  49 NW13G24   30.06R
OFFUTT AFB     CLEAR     45  28  51 NW17G26   30.05R
PLATTSMOUTH    CLEAR     46  29  52 NW20G29   30.04R
WAHOO          FAIR      45  26  48 NW21G28   30.07R
$$




USA.gov is the U.S. government's official web portal to all federal, state and local government web resources and services.